RH
12 10 12 16 24 27 23 40 44 40 36 39 40 38 36 33 30 28 26 24 22 18 16 16 18 19 23 26 25 28 33 36 35 38 63 80 82 100 95 99 90 46 78 89 52 12 41 52 97 100 76 100 99 99
21 16 13 14 16 18 21 30 35 41 44 52 54 45 38 34 31 28 26 23 21 20 20 20 20 23 26 28 31 38 46 54 57 50 61 84 83 89 89 86 78 97 91 84 55 40 15 23 53 100 100 100 100 100
25 25 23 19 22 17 14 23 57 31 33 42 50 60 61 58 52 45 38 33 28 25 23 20 24 27 31 30 34 42 50 64 67 70 44 57 70 85 86 100 100 69 82 67 39 20 12 11 19 46 99 100 100 100
27 21 25 26 24 21 19 22 22 28 33 31 32 37 45 54 58 57 48 39 32 28 26 24 31 30 34 31 35 50 67 58 60 43 31 35 47 72 97 83 65 79 78 93 48 22 15 10 11 15 85 100 100 100
35 35 25 24 29 27 21 22 29 93 95 96 34 29 32 40 51 59 52 41 36 33 32 36 36 34 33 35 57 72 63 41 20 20 30 38 51 76 100 100 100 100 100 100 86 90 49 15 9 10 45 98 100 93
46 32 38 28 25 26 27 24 44 100 100 98 51 40 30 30 41 54 47 46 47 40 43 40 38 35 42 69 77 61 40 25 24 31 32 47 58 70 88 100 100 100 100 100 100 77 79 72 25 14 19 64 61 90
67 38 36 38 27 26 26 27 100 100 100 58 35 38 44 66 88 62 66 63 52 49 50 41 40 42 76 77 54 38 53 37 31 30 36 48 46 66 74 100 100 100 100 100 100 81 70 97 60 26 12 30 31 72
98 55 37 40 32 28 28 35 100 100 100 76 70 52 35 98 92 95 80 70 63 56 48 47 50 87 80 62 36 48 53 39 31 30 33 37 37 46 54 69 78 74 98 100 100 100 75 83 90 71 40 16 23 95
100 70 42 41 38 30 24 62 96 100 100 100 100 100 70 89 100 99 84 70 60 53 48 54 99 100 92 44 62 50 59 47 50 36 30 30 36 33 38 55 56 76 92 100 100 100 99 80 62 57 52 28 18 90
96 54 44 47 31 59 100 96 66 100 100 100 100 100 96 100 99 92 77 65 54 53 78 100 96 81 73 79 80 82 99 100 91 59 35 28 26 28 47 58 67 82 84 99 100 100 100 100 92 83 78 53 80 88
73 44 48 63 100 100 100 97 94 100 92 88 94 100 100 100 100 85 69 60 71 96 100 92 64 83 88 92 95 92 96 100 90 96 76 51 37 48 74 65 63 76 74 62 81 99 100 100 100 91 85 67 73 74
43 46 65 100 100 100 100 75 63 35 51 93 100 100 100 100 88 79 69 86 93 100 95 75 64 67 86 91 99 100 100 98 93 99 60 57 56 51 61 72 73 76 45 32 40 62 90 99 100 100 100 100 97 89
100 100 100 100 97 98 81 68 72 88 100 100 99 100 100 90 84 81 69 78 100 100 99 78 69 78 79 84 100 100 100 100 100 84 77 56 80 78 78 82 82 73 47 25 32 36 46 51 57 82 68 73 58 44
100 100 100 100 97 92 80 99 100 100 100 100 100 100 100 100 100 99 99 100 100 100 99 78 73 79 88 100 100 100 100 100 100 99 99 81 70 100 99 98 70 45 38 26 22 25 25 26 29 30 29 28 25 20
100 100 90 82 79 94 100 100 100 100 100 100 100 100 99 100 100 100 100 100 100 100 99 77 71 79 87 100 100 100 100 100 100 100 100 100 100 96 99 97 99 88 88 83 67 44 25 23 30 37 44 41 36 35
58 48 62 52 94 100 100 100 100 100 100 100 98 94 100 100 100 100 100 100 100 98 93 72 83 76 94 99 100 100 100 100 100 97 92 93 94 99 100 99 87 92 96 96 96 92 88 89 82 77 78 78 80 83
38 55 88 100 98 100 100 100 96 100 82 95 100 100 100 100 100 100 96 92 86 80 74 63 68 94 98 90 87 96 100 94 95 97 97 95 94 94 98 100 97 96 95 94 91 93 98 97 96 99 98 95 90 86
93 84 94 98 99 100 88 88 83 99 100 100 100 100 100 96 91 89 89 93 89 83 81 68 64 79 86 96 77 76 83 91 94 94 91 92 94 96 97 98 96 94 93 91 91 94 96 98 99 99 98 96 98 95
100 100 99 88 88 74 86 100 100 100 100 100 96 91 91 92 90 85 88 96 97 98 97 92 74 64 83 96 87 83 90 92 95 100 100 100 100 99 99 99 100 98 97 92 90 88 82 76 72 70 70 72 73 72
99 90 81 83 96 100 100 100 100 100 100 94 91 88 89 96 96 94 95 94 98 99 99 98 99 100 100 100 100 100 100 100 100 100 100 100 100 100 100 100 98 97 97 97 97 95 93 93 91 87 84 81 79 74
85 95 100 100 100 100 100 100 99 98 87 91 98 90 90 89 95 98 94 93 97 100 98 99 100 100 100 100 100 100 100 100 100 100 100 100 100 100 100 100 99 98 93 89 85 84 82 81 82 83 84 85 86 88
86 91 95 100 100 100 100 100 97 97 95 93 87 85 86 89 89 90 90 88 84 82 81 81 84 88 95 100 100 100 100 100 100 98 95 86 74 60 48 41 34 32 29 31 32 33 36 38 42 46 50 53 57 61
94 89 91 97 100 100 100 99 94 90 87 84 82 78 78 77 80 79 74 78 85 93 98 99 97 87 68 47 32 25 21 19 19 19 19 19 18 18 18 17 17 16 16 16 16 15 15 15 16 16 16 17 17 18
90 79 83 82 89 86 87 89 82 76 76 73 73 72 72 88 98 100 95 78 53 35 26 24 22 21 22 24 26 26 24 21 21 23 25 25 24 22 20 18 18 17 15 13 11 10 10 10 10 10 11 12 13 14
92 87 82 84 88 72 72 71 73 73 70 65 73 94 98 94 71 48 30 29 34 36 32 33 34 36 38 39 42 44 46 48 49 48 46 39 31 26 22 20 19 16 10 10 11 14 16 17 16 16 16 15 14 13
85 89 85 86 84 76 65 63 64 70 87 98 97 81 56 43 35 35 38 39 38 37 38 41 44 46 47 47 42 39 40 43 46 51 50 43 34 27 23 22 17 12 12 14 18 23 22 18 18 18 18 17 18 19
77 80 78 68 61 59 61 74 87 90 89 70 44 40 40 38 40 40 40 40 40 41 43 45 46 47 49 49 43 42 38 39 43 43 45 40 33 30 24 20 13 13 15 17 18 27 30 23 23 24 23 23 22 22
58 59 62 65 75 81 83 80 68 49 39 42 46 44 44 44 43 43 42 43 43 44 45 47 47 48 50 48 50 50 40 39 40 36 39 39 35 27 24 15 13 15 17 18 20 30 41 39 28 25 24 26 28 32
72 80 81 77 74 64 52 40 37 43 48 51 51 50 48 48 50 49 49 48 48 49 51 54 56 58 57 56 54 52 42 40 40 33 38 40 34 27 22 14 14 16 19 19 20 31 44 50 48 39 31 27 27 29
59 50 50 46 40 36 34 39 45 50 55 58 59 59 58 58 60 60 60 60 60 61 64 69 73 74 72 67 61 54 46 44 42 32 40 41 33 27 20 14 16 18 23 24 23 29 40 55 60 62 58 51 41 32
48 47 45 41 40 42 48 58 67 68 66 66 69 74 73 77 81 78 74 73 74 74 75 80 81 80 76 72 67 61 53 48 46 34 41 42 35 28 21 15 17 19 24 33 39 40 43 50 57 64 66 65 64 62
60 64 64 62 66 74 80 85 84 84 85 89 90 91 92 95 92 85 81 75 77 82 82 81 83 82 78 74 71 69 62 51 52 36 41 44 37 30 22 16 17 20 25 28 42 48 51 53 55 57 59 60 59 56
62 67 73 80 85 90 94 94 92 92 91 89 89 91 92 94 95 95 96 97 99 99 98 96 95 92 90 88 80 75 72 59 56 44 43 46 39 32 24 16 18 21 27 28 29 32 41 49 51 52 53 54 54 54
Wind_Speed
61 62 62 60 58 58 56 52 49 46 44 39 36 33 30 27 25 24 25 23 22 22 22 24 26 27 25 24 24 23 20 18 15 13 10 16 17 14 13 12 15 16 12 11 12 9 9 5 15 24 20 11 8 7
59 60 62 61 63 60 59 54 53 52 49 45 41 37 34 31 29 27 26 25 25 25 25 26 27 27 24 22 23 21 19 17 16 13 18 17 21 17 13 14 14 15 16 14 14 14 10 8 6 24 24 18 1 5
61 60 59 60 64 62 60 56 46 53 50 46 44 41 38 33 30 28 28 26 26 27 28 27 29 25 25 23 24 22 21 20 18 18 19 19 21 19 15 12 13 18 18 17 18 19 17 12 12 15 17 20 10 9
51 59 62 60 59 60 59 56 54 50 44 45 42 40 37 35 33 31 29 29 29 30 31 30 27 25 26 24 24 23 23 23 21 23 22 22 23 22 18 16 14 16 20 16 19 21 20 21 24 23 23 19 12 9
45 45 52 61 59 56 53 52 47 38 37 45 40 37 36 33 33 34 33 32 33 33 32 27 24 24 24 22 23 24 23 22 18 17 22 23 25 24 21 18 7 11 9 5 20 17 24 27 25 28 27 19 12 10
39 42 41 45 58 56 51 48 48 46 48 52 43 42 40 36 36 37 34 34 34 32 28 23 23 23 21 21 23 21 17 13 15 19 22 22 25 25 22 14 11 7 11 6 15 14 16 21 29 30 32 27 21 14
35 38 40 37 45 55 52 45 54 50 50 48 40 40 44 43 41 39 37 34 32 29 21 21 22 21 20 20 17 12 11 10 15 18 21 21 25 27 25 14 10 8 8 9 8 14 16 15 17 26 33 34 30 25
29 37 38 37 40 49 52 51 57 52 55 45 39 35 42 42 41 36 34 30 27 23 22 21 20 19 17 14 10 8 7 7 12 15 18 19 21 27 24 17 10 11 7 7 9 10 19 20 15 14 25 34 32 25
28 33 40 36 40 48 49 50 59 39 45 34 31 29 37 40 37 33 32 29 24 22 19 20 18 9 12 9 6 4 3 2 4 10 15 19 19 24 22 15 11 9 8 7 11 14 15 17 19 19 20 27 33 34
28 34 42 40 46 48 42 36 50 52 46 39 33 29 31 31 31 30 30 24 24 17 17 14 14 12 9 10 6 6 7 5 2 4 10 15 17 18 19 17 13 12 11 6 5 14 18 18 18 19 20 24 26 32
28 41 44 58 54 45 40 37 42 41 41 39 34 28 30 32 30 29 27 26 20 17 18 15 14 14 13 13 10 6 4 6 6 7 7 10 13 17 22 19 17 14 11 9 6 6 5 15 22 20 18 22 21 29
44 54 61 55 49 44 42 39 41 33 31 30 32 34 34 32 30 30 27 22 20 23 17 14 13 18 16 13 8 6 8 10 8 8 8 9 9 15 18 19 19 15 12 12 13 10 5 3 7 10 15 16 18 21
63 60 62 60 51 43 40 39 34 33 30 34 35 33 31 31 30 27 24 21 21 20 17 16 17 18 15 12 6 7 5 4 5 5 5 6 9 10 10 12 15 17 18 17 17 16 13 11 11 6 8 8 11 13
60 55 47 44 40 37 36 38 35 34 36 34 32 30 25 27 23 20 16 17 22 24 19 18 21 19 15 9 9 8 5 5 8 7 7 8 11 9 10 10 8 14 17 18 22 22 21 19 18 17 16 17 17 19
59 54 50 40 44 46 42 35 37 38 34 32 21 15 19 16 16 15 18 22 24 24 20 19 21 19 14 9 9 9 7 6 6 6 11 12 13 14 11 11 13 14 14 15 16 20 23 24 24 24 24 24 24 25
47 44 41 47 48 43 41 40 38 41 39 27 24 22 18 17 16 15 17 21 22 25 22 22 20 20 15 11 8 9 11 10 12 14 15 13 13 14 16 16 18 19 20 21 22 21 22 23 25 26 27 28 29 29
45 51 53 47 45 46 44 49 44 37 32 26 20 20 20 19 16 14 14 17 19 22 22 24 22 18 18 16 14 13 13 14 14 15 19 20 21 22 24 23 21 21 23 24 25 27 29 30 31 32 32 32 32 33
48 46 46 48 47 52 47 40 33 29 28 25 23 20 18 15 13 10 9 9 11 15 19 21 24 23 21 17 20 19 19 19 18 18 19 20 21 22 22 23 24 25 26 27 28 28 29 30 32 34 36 38 39 40
46 44 42 44 45 42 39 36 32 27 22 20 19 17 13 10 8 8 9 9 11 12 13 17 21 22 22 24 25 25 24 24 26 27 25 24 25 26 27 27 28 28 28 27 29 30 31 32 34 35 36 37 38 38
44 46 45 42 39 36 33 31 28 24 19 16 13 9 6 5 5 7 8 7 6 4 4 6 9 15 21 25 27 28 27 26 25 26 27 27 27 28 30 31 32 33 33 34 34 34 35 35 36 36 37 37 37 37
44 42 39 37 33 30 26 24 22 17 15 13 11 11 9 11 11 11 9 7 5 2 3 5 7 9 12 14 17 20 23 25 26 27 28 31 33 35 36 36 36 36 37 38 39 40 42 43 43 44 44 44 44 45
36 35 33 31 28 24 20 17 15 14 13 12 11 9 7 7 6 5 4 2 1 4 6 8 10 12 14 17 20 22 24 26 27 29 30 31 32 33 35 36 37 38 40 42 43 44 46 47 48 49 49 50 50 50
27 27 25 23 20 17 15 15 14 13 11 10 6 6 6 5 4 2 1 3 4 6 8 10 13 15 16 17 18 19 20 21 22 23 24 26 27 29 31 33 36 38 40 42 44 45 46 48 49 49 50 50 51 51
21 19 19 18 17 15 16 13 11 9 6 5 6 6 4 2 1 1 3 4 6 7 8 9 9 9 10 12 14 17 19 20 22 24 25 26 27 28 30 33 35 38 40 43 45 48 49 51 52 52 53 53 53 53
18 16 15 15 13 11 10 9 7 7 7 5 4 3 2 2 2 3 4 4 5 5 5 6 7 9 10 12 14 17 20 22 23 25 26 26 26 28 33 36 36 39 39 38 36 35 35 35 36 37 38 40 41 43
14 13 12 10 7 7 8 8 7 6 5 4 3 4 4 4 3 3 3 3 3 5 7 9 11 13 14 15 18 22 25 27 28 28 27 27 29 33 39 39 41 38 34 31 30 30 29 28 28 29 30 31 32 32
11 10 10 9 9 9 8 8 7 6 7 6 6 5 4 3 2 3 3 4 5 7 9 11 13 16 18 18 20 24 28 31 33 31 28 28 32 38 42 41 40 35 32 30 29 28 27 26 24 23 23 24 25 26
12 11 10 10 9 9 8 9 9 8 8 7 6 5 5 4 4 5 6 7 7 9 10 13 15 18 20 21 22 25 30 33 34 31 28 30 35 40 42 40 35 32 29 27 25 24 24 23 24 24 23 22 21 21
11 11 11 11 11 11 11 10 10 8 8 8 8 8 8 8 7 8 9 9 11 12 13 15 17 19 21 23 24 25 30 33 35 31 29 32 37 42 42 38 34 29 26 24 22 22 21 21 21 20 20 20 19 18
15 15 14 14 13 13 13 11 11 10 10 10 10 10 10 10 10 11 11 13 14 15 17 18 20 22 23 25 26 26 30 33 35 31 30 34 39 43 42 37 32 27 25 23 21 20 20 20 19 19 18 18 19 19
16 15 14 13 12 13 12 12 13 13 13 12 12 11 12 11 12 13 14 15 15 17 19 21 22 23 24 25 27 27 30 34 36 33 31 35 39 43 41 36 30 28 25 22 20 19 19 18 18 18 18 18 18 17
18 17 17 16 15 14 13 12 11 11 12 12 12 11 11 11 11 13 14 15 17 18 19 21 23 24 25 26 27 28 30 33 37 35 33 35 39 43 41 36 31 28 25 22 20 19 18 18 17 17 17 18 18 18
22 21 20 18 17 15 15 14 14 13 12 12 11 11 12 12 13 14 16 18 20 21 22 23 24 25 27 27 29 29 30 33 36 37 35 36 39 43 42 37 32 27 24 22 21 20 19 19 19 19 19 19 19 19
Wind_Direction
237 237 236 237 236 242 240 238 240 241 242 242 242 243 242 242 239 237 239 245 250 256 260 264 268 274 283 293 282 294 299 298 276 257 239 228 228 225 220 223 214 193 212 229 237 236 264 250 208 188 194 189 216 256
234 231 228 229 235 233 239 239 239 239 240 242 242 242 243 243 244 245 245 247 248 250 254 258 266 273 282 277 274 284 294 294 279 265 234 228 223 212 214 214 216 206 213 216 218 223 240 234 259 196 201 194 106 312
232 230 227 226 225 229 232 233 233 240 238 238 240 241 241 241 240 239 239 241 242 245 251 256 264 271 280 272 267 276 286 288 271 265 244 228 218 211 209 208 212 224 214 223 224 229 235 231 237 238 227 178 198 204
230 226 226 223 223 226 225 222 225 232 235 236 234 237 238 238 237 235 234 236 237 242 249 256 265 272 277 266 268 274 280 285 267 263 224 212 211 210 214 215 203 221 225 252 250 229 226 230 230 228 227 204 175 169
224 225 223 220 220 220 219 219 219 217 213 225 229 226 228 225 224 226 227 229 233 239 248 256 262 273 268 264 269 278 285 280 262 227 206 204 209 210 213 208 219 229 218 284 238 220 223 225 228 224 220 220 188 176
219 216 217 217 214 213 212 209 200 200 212 222 222 211 211 213 216 219 221 226 235 243 249 253 263 263 257 265 275 286 279 259 218 205 203 204 213 217 223 238 237 226 225 213 171 210 216 219 226 226 220 216 219 204
213 209 207 208 208 205 201 198 188 198 207 222 230 224 214 211 214 216 220 223 230 238 243 248 256 249 261 271 284 274 267 235 213 208 206 209 215 223 225 237 208 229 228 248 190 215 209 191 222 227 227 221 217 211
206 202 198 198 197 194 189 186 188 203 212 224 228 223 217 213 214 219 221 223 225 228 233 246 235 246 262 273 269 270 259 224 209 210 216 219 224 227 228 234 261 263 279 247 245 222 217 224 232 247 234 227 222 212
200 196 189 187 181 179 179 181 190 194 216 211 201 208 213 210 212 215 216 219 219 225 235 223 226 233 258 238 219 186 126 130 212 215 218 225 230 227 223 228 230 239 258 247 233 226 230 237 236 239 246 234 223 218
194 185 177 171 163 160 169 178 182 192 199 202 204 200 201 202 206 208 210 207 215 227 211 211 218 211 212 193 184 144 110 349 351 290 225 225 231 218 206 213 217 225 237 236 252 212 231 239 249 245 235 231 234 235
185 168 163 152 150 155 171 179 183 185 197 201 198 191 182 188 192 199 201 207 209 200 199 201 204 191 183 178 169 182 236 247 263 261 240 220 210 206 201 211 221 226 233 247 254 281 230 221 235 240 229 224 239 244
158 150 148 151 158 167 178 176 177 180 177 172 177 179 177 181 185 194 204 202 193 187 193 188 185 178 178 176 179 209 260 270 259 250 243 225 227 214 210 228 232 231 240 255 247 247 286 293 155 169 194 201 209 220
142 149 154 157 163 168 165 170 176 158 169 171 169 171 174 181 189 197 201 193 183 183 194 193 183 178 184 196 233 256 266 241 212 201 186 180 202 216 224 229 239 242 249 248 244 240 236 245 239 225 233 229 235 236
145 145 153 160 158 155 147 148 158 163 164 162 166 173 175 186 186 198 199 179 173 184 195 195 189 190 195 219 217 225 268 247 248 224 216 217 217 224 244 260 247 245 255 256 244 239 238 235 240 243 243 245 245 245
150 156 159 157 154 148 152 161 157 156 156 147 133 176 175 181 188 178 179 179 192 191 197 199 193 197 209 213 216 229 257 269 273 256 243 257 224 234 245 254 256 258 260 255 251 250 248 244 243 247 249 247 244 243
158 158 156 148 148 151 150 149 146 147 147 161 169 175 168 169 174 177 183 184 189 197 204 200 199 206 212 223 223 230 241 250 245 248 254 256 258 261 260 264 271 264 255 256 254 251 249 249 250 250 249 250 250 250
144 142 141 146 144 142 143 146 152 158 159 161 161 162 157 154 156 166 177 193 205 210 209 203 205 208 220 232 236 248 254 259 258 260 262 265 266 267 269 273 270 264 261 260 261 259 256 255 255 255 255 255 255 254
138 137 137 140 144 146 148 148 149 149 146 139 140 147 157 165 173 183 197 205 208 212 214 215 213 216 224 231 242 249 259 264 271 284 286 279 276 274 274 273 274 273 270 268 266 264 263 260 259 259 260 261 261 262
131 135 138 140 141 142 140 140 136 136 137 147 159 165 172 178 196 219 221 206 200 205 215 220 226 231 234 242 251 259 265 267 277 284 284 280 280 277 276 277 276 276 278 278 273 270 269 269 269 268 268 267 266 265
135 135 134 134 134 133 132 131 136 141 149 153 149 152 156 164 178 185 184 167 174 201 229 244 238 238 242 250 258 266 272 276 279 280 281 281 280 278 279 282 283 281 279 277 275 273 272 271 271 270 269 269 268 268
128 129 129 127 125 126 131 136 139 141 139 131 121 121 121 114 109 107 109 118 133 174 234 251 257 262 264 267 270 273 277 280 282 283 284 284 284 284 283 283 283 282 280 279 277 274 273 272 271 270 270 270 269 269
129 127 128 130 128 129 129 134 131 129 128 126 125 122 120 121 116 109 114 127 227 265 278 281 282 284 285 286 287 289 289 288 288 288 288 288 287 287 286 285 284 283 281 280 278 276 275 273 272 271 271 270 269 269
130 131 130 129 133 134 139 138 138 137 140 139 127 119 117 125 128 141 217 271 281 287 288 290 292 293 294 295 296 296 297 297 297 296 296 295 295 295 294 293 291 289 287 284 282 280 278 276 274 272 271 271 270 270
134 136 142 138 137 143 139 139 140 140 143 136 129 127 134 155 192 272 298 305 307 304 306 306 310 312 311 311 312 312 313 311 309 306 305 303 302 303 307 304 298 295 292 289 285 281 278 276 274 273 272 271 270 269
141 144 140 138 142 143 138 141 143 141 139 141 151 169 199 238 261 271 287 296 304 314 321 326 327 328 328 333 334 332 327 323 319 314 309 308 310 312 318 315 310 308 304 297 292 289 287 286 284 283 281 279 277 275
147 152 155 159 164 159 159 158 160 167 171 185 212 219 222 235 246 267 287 293 304 327 341 343 341 336 331 330 336 336 334 331 328 322 318 318 320 324 326 323 317 313 305 299 296 294 292 292 291 291 288 285 282 280
164 168 173 170 168 171 174 182 189 201 212 213 210 219 222 231 251 300 325 321 322 332 337 339 338 336 333 328 328 332 334 333 332 328 324 325 328 329 327 324 319 314 307 303 300 296 294 291 291 298 303 300 291 285
169 174 178 181 186 194 201 208 209 204 204 209 220 229 242 253 271 298 310 318 320 322 321 323 326 328 329 329 325 326 332 335 335 331 328 329 330 332 331 328 322 318 312 307 303 299 297 297 292 291 294 299 301 295
188 194 197 202 203 205 204 203 205 214 225 238 246 251 256 266 278 288 298 305 311 312 313 315 316 320 323 326 326 326 332 336 337 334 331 332 335 336 335 333 329 325 319 313 308 303 301 300 300 298 295 295 298 300
195 196 199 201 204 205 208 216 228 236 241 244 251 258 263 269 279 287 294 299 303 308 311 313 316 318 320 324 326 327 332 336 339 336 333 336 339 340 340 337 334 331 329 323 316 310 305 302 303 304 303 301 298 296
209 211 213 216 217 221 231 243 250 252 250 251 255 256 260 270 279 288 294 298 301 305 308 312 314 318 320 323 325 326 331 336 340 338 336 339 343 343 342 340 335 331 328 327 325 321 316 311 308 305 303 304 304 303
212 214 216 217 221 228 236 242 247 253 253 254 254 258 266 273 282 289 295 298 300 302 305 309 312 315 319 324 326 326 330 335 340 339 337 339 344 345 344 342 338 334 330 324 321 321 321 320 317 314 310 306 303 302
222 225 225 227 230 235 241 246 251 256 262 265 267 270 282 290 298 300 300 302 302 303 305 307 310 313 315 320 324 326 328 334 339 340 338 340 344 347 345 343 339 336 335 333 326 318 314 313 312 312 310 309 307 305